Regional Weather Roundup
Issued by NWS Cleveland, OH

Home | Current Version | Previous Version | Text Only | Print | Product List | Glossary Off
Versions: 1 2 3 4 5 6 7 8 9 10 11 12 13 14 15 16 17 18 19 20 21 22 23 24 25 26 27 28 29 30 31 32 33 34 35 36 37 38 39 40 41 42 43 44 45 46 47 48 49 50

000
ASUS41 KCLE 240900
RWRCLE
OHIO REGIONAL WEATHER ROUNDUP
NATIONAL WEATHER SERVICE WILMINGTON, OH
500 AM EDT WED MAY 24 2017

NOTE: "FAIR" INDICATES FEW OR NO CLOUDS BELOW 12,000 FEET WITH NO
SIGNIFICANT WEATHER AND/OR OBSTRUCTIONS TO VISIBILITY.

OHZ001>008-015>018-024>027-034-035-043-044-241000-
   NORTHWEST OHIO

CITY           SKY/WX    TMP DP  RH WIND       PRES   REMARKS
DEFIANCE       FAIR      56  48  74 E5        29.59F
FINDLAY        FAIR      58  51  78 SE5       29.58F
TOLEDO EXPRESS MOCLDY    55  50  83 E5        29.58F
TOLEDO EXEC    FAIR      59  55  87 N5        29.60F
LIMA           CLOUDY    58  56  93 E5        29.58F
$$

OHZ009>014-019>023-028>033-038-089-241000-
   NORTHEAST OHIO

CITY           SKY/WX    TMP DP  RH WIND       PRES   REMARKS
CLE-HOPKINS    CLOUDY    63  54  72 SE6       29.63F
CLE-LAKEFRONT  MOCLDY    62  52  69 VRB5      29.61F
CUY CO. ARPT   NOT AVBL
LORAIN-ELYRIA    N/A    N/A N/A N/A MISG      29.61F
ASHTABULA      FAIR      55  51  86 E5        29.67S
AKRON-CANTON   LGT RAIN  61  54  77 SE6       29.63F
WOOSTER        NOT AVBL
MANSFIELD      FAIR      59  58  96 SE7       29.61F
YOUNGSTOWN     CLOUDY    56  53  90 E5        29.67F
$$

OHZ042-051>053-060>062-070>072-077>081-241000-
  SOUTHWEST OHIO

CITY           SKY/WX    TMP DP  RH WIND       PRES   REMARKS
CINC-COVINGTON MOCLDY    60  58  92 SE5       29.55F
CINC-LUNKEN    FAIR      58  58 100 NE3       29.56F FOG
HAMILTON       FAIR      60  58  92 CALM      29.57F
DAYTON         NOT AVBL
WRIGHT-PAT AFB CLOUDY    59  59 100 CALM      29.58S
DAYTON GENERAL FAIR      60  57  89 SE7       29.57F
WILMINGTON     CLOUDY    59  59 100 SE3       29.59S
$$

OHZ036-037-039>041-045>050-054>059-063>069-073>076-082>088-241000-
  CENTRAL AND SOUTHEAST OHIO

CITY           SKY/WX    TMP DP  RH WIND       PRES   REMARKS
COLUMBUS       MOCLDY    61  59  93 SE6       29.59S
OSU AIRPORT    FAIR      60  59  96 CALM      29.60R
BOLTON FIELD   NOT AVBL
RICKENBACK AFB NOT AVBL
NEWARK         FAIR      60  57  89 CALM      29.59F
MARION         FAIR      59  57  93 S6        29.61S
LANCASTER      FAIR      60  57  89 CALM      29.60F
ZANESVILLE     FAIR      60  57  89 SE7       29.61S
NEW PHILLY     CLOUDY    60  57  89 E6        29.62F
$$




USA.gov is the U.S. government's official web portal to all federal, state and local government web resources and services.